Year,Month,Day,Hour,Minute,Value (Times are PST for temperature in C)
2014,07,11,00,00,17.50
2014,07,11,00,01,17.50
2014,07,11,00,02,17.50
2014,07,11,00,03,17.40
2014,07,11,00,04,17.40
2014,07,11,00,05,17.40
2014,07,11,00,06,17.40
2014,07,11,00,07,17.30
2014,07,11,00,08,17.30
2014,07,11,00,09,17.30
2014,07,11,00,10,17.30
2014,07,11,00,11,17.20
2014,07,11,00,12,17.20
2014,07,11,00,13,17.20
2014,07,11,00,14,17.20
2014,07,11,00,15,17.10
2014,07,11,00,16,17.10
2014,07,11,00,17,17.10
2014,07,11,00,18,17.00
2014,07,11,00,19,17.00
2014,07,11,00,20,17.00
2014,07,11,00,21,16.90
2014,07,11,00,22,16.90
2014,07,11,00,23,16.90
2014,07,11,00,24,16.90
2014,07,11,00,25,16.90
2014,07,11,00,26,16.90
2014,07,11,00,27,16.90
2014,07,11,00,28,16.80
2014,07,11,00,29,16.80
2014,07,11,00,30,16.80
2014,07,11,00,31,16.80
2014,07,11,00,32,16.80
2014,07,11,00,33,16.80
2014,07,11,00,34,16.70
2014,07,11,00,35,16.70
2014,07,11,00,36,16.70
2014,07,11,00,37,16.70
2014,07,11,00,38,16.70
2014,07,11,00,39,16.70
2014,07,11,00,40,16.60
2014,07,11,00,41,16.60
2014,07,11,00,42,16.60
2014,07,11,00,43,16.50
2014,07,11,00,44,16.50
2014,07,11,00,45,16.50
2014,07,11,00,46,16.50
2014,07,11,00,47,16.40
2014,07,11,00,48,16.40
2014,07,11,00,49,16.40
2014,07,11,00,50,16.40
2014,07,11,00,51,16.40
2014,07,11,00,52,16.30
2014,07,11,00,53,16.30
2014,07,11,00,54,16.30
2014,07,11,00,55,16.30
2014,07,11,00,56,16.30
2014,07,11,00,57,16.20
2014,07,11,00,58,16.20
2014,07,11,00,59,16.20
2014,07,11,01,00,16.20
2014,07,11,01,01,16.20
2014,07,11,01,02,16.20
2014,07,11,01,03,16.10
2014,07,11,01,04,16.10
2014,07,11,01,05,16.10
2014,07,11,01,06,16.10
2014,07,11,01,07,16.10
2014,07,11,01,08,16.10
2014,07,11,01,09,16.00
2014,07,11,01,10,16.00
2014,07,11,01,11,16.00
2014,07,11,01,12,16.00
2014,07,11,01,13,15.90
2014,07,11,01,14,15.90
2014,07,11,01,15,15.90
2014,07,11,01,16,15.90
2014,07,11,01,17,15.90
2014,07,11,01,18,15.90
2014,07,11,01,19,15.90
2014,07,11,01,20,15.80
2014,07,11,01,21,15.80
2014,07,11,01,22,15.80
2014,07,11,01,23,15.80
2014,07,11,01,24,15.80
2014,07,11,01,25,15.80
2014,07,11,01,26,15.80
2014,07,11,01,27,15.80
2014,07,11,01,28,15.80
2014,07,11,01,29,15.80
2014,07,11,01,30,15.80
2014,07,11,01,31,15.70
2014,07,11,01,32,15.70
2014,07,11,01,33,15.70
2014,07,11,01,34,15.70
2014,07,11,01,35,15.70
2014,07,11,01,36,15.70
2014,07,11,01,37,15.70
2014,07,11,01,38,15.70
2014,07,11,01,39,15.70
2014,07,11,01,40,15.60
2014,07,11,01,41,15.60
2014,07,11,01,42,15.60
2014,07,11,01,43,15.60
2014,07,11,01,44,15.60
2014,07,11,01,45,15.60
2014,07,11,01,46,15.50
2014,07,11,01,47,15.50
2014,07,11,01,48,15.50
2014,07,11,01,49,15.40
2014,07,11,01,50,15.40
2014,07,11,01,51,15.40
2014,07,11,01,52,15.40
2014,07,11,01,53,15.40
2014,07,11,01,54,15.40
2014,07,11,01,55,15.30
2014,07,11,01,56,15.30
2014,07,11,01,57,15.30
2014,07,11,01,58,15.30
2014,07,11,01,59,15.30
2014,07,11,02,00,15.30
2014,07,11,02,01,15.30
2014,07,11,02,02,15.20
2014,07,11,02,03,15.20
2014,07,11,02,04,15.20
2014,07,11,02,05,15.20
2014,07,11,02,06,15.20
2014,07,11,02,07,15.10
2014,07,11,02,08,15.10
2014,07,11,02,09,15.10
2014,07,11,02,10,15.10
2014,07,11,02,11,15.00
2014,07,11,02,12,15.00
2014,07,11,02,13,15.00
2014,07,11,02,14,14.90
2014,07,11,02,15,14.90
2014,07,11,02,16,14.90
2014,07,11,02,17,14.90
2014,07,11,02,18,14.90
2014,07,11,02,19,14.90
2014,07,11,02,20,14.80
2014,07,11,02,21,14.80
2014,07,11,02,22,14.80
2014,07,11,02,23,14.80
2014,07,11,02,24,14.80
2014,07,11,02,25,14.80
2014,07,11,02,26,14.80
2014,07,11,02,27,14.80
2014,07,11,02,28,14.80
2014,07,11,02,29,14.70
2014,07,11,02,30,14.70
2014,07,11,02,31,14.70
2014,07,11,02,32,14.70
2014,07,11,02,33,14.70
2014,07,11,02,34,14.70
2014,07,11,02,35,14.60
2014,07,11,02,36,14.60
2014,07,11,02,37,14.60
2014,07,11,02,38,14.60
2014,07,11,02,39,14.60
2014,07,11,02,40,14.50
2014,07,11,02,41,14.50
2014,07,11,02,42,14.50
2014,07,11,02,43,14.50
2014,07,11,02,44,14.50
2014,07,11,02,45,14.50
2014,07,11,02,46,14.50
2014,07,11,02,47,14.50
2014,07,11,02,48,14.50
2014,07,11,02,49,14.50
2014,07,11,02,50,14.40
2014,07,11,02,51,14.40
2014,07,11,02,52,14.40
2014,07,11,02,53,14.40
2014,07,11,02,54,14.40
2014,07,11,02,55,14.40
2014,07,11,02,56,14.40
2014,07,11,02,57,14.40
2014,07,11,02,58,14.40
2014,07,11,02,59,14.40
2014,07,11,03,00,14.30
2014,07,11,03,01,14.30
2014,07,11,03,02,14.30
2014,07,11,03,03,14.30
2014,07,11,03,04,14.30
2014,07,11,03,05,14.30
2014,07,11,03,06,14.30
2014,07,11,03,07,14.30
2014,07,11,03,08,14.30
2014,07,11,03,09,14.30
2014,07,11,03,10,14.30
2014,07,11,03,11,14.20
2014,07,11,03,12,14.20
2014,07,11,03,13,14.20
2014,07,11,03,14,14.20
2014,07,11,03,15,14.20
2014,07,11,03,16,14.20
2014,07,11,03,17,14.20
2014,07,11,03,18,14.20
2014,07,11,03,19,14.10
2014,07,11,03,20,14.10
2014,07,11,03,21,14.10
2014,07,11,03,22,14.10
2014,07,11,03,23,14.10
2014,07,11,03,24,14.00
2014,07,11,03,25,14.00
2014,07,11,03,26,14.00
2014,07,11,03,27,13.90
2014,07,11,03,28,13.90
2014,07,11,03,29,13.90
2014,07,11,03,30,13.90
2014,07,11,03,31,13.90
2014,07,11,03,32,13.90
2014,07,11,03,33,13.90
2014,07,11,03,34,13.90
2014,07,11,03,35,13.80
2014,07,11,03,36,13.80
2014,07,11,03,37,13.80
2014,07,11,03,38,13.80
2014,07,11,03,39,13.80
2014,07,11,03,40,13.80
2014,07,11,03,41,13.80
2014,07,11,03,42,13.80
2014,07,11,03,43,13.80
2014,07,11,03,44,13.80
2014,07,11,03,45,13.80
2014,07,11,03,46,13.80
2014,07,11,03,47,13.70
2014,07,11,03,48,13.70
2014,07,11,03,49,13.70
2014,07,11,03,50,13.70
2014,07,11,03,51,13.70
2014,07,11,03,52,13.60
2014,07,11,03,53,13.60
2014,07,11,03,54,13.60
2014,07,11,03,55,13.60
2014,07,11,03,56,13.60
2014,07,11,03,57,13.60
2014,07,11,03,58,13.60
2014,07,11,03,59,13.60
2014,07,11,04,00,13.60
2014,07,11,04,01,13.60
2014,07,11,04,02,13.50
2014,07,11,04,03,13.50
2014,07,11,04,04,13.50
2014,07,11,04,05,13.50
2014,07,11,04,06,13.40
2014,07,11,04,07,13.40
2014,07,11,04,08,13.40
2014,07,11,04,09,13.40
2014,07,11,04,10,13.40
2014,07,11,04,11,13.40
2014,07,11,04,12,13.40
2014,07,11,04,13,13.40
2014,07,11,04,14,13.30
2014,07,11,04,15,13.30
2014,07,11,04,16,13.30
2014,07,11,04,17,13.30
2014,07,11,04,18,13.30
2014,07,11,04,19,13.30
2014,07,11,04,20,13.30
2014,07,11,04,21,13.30
2014,07,11,04,22,13.30
2014,07,11,04,23,13.30
2014,07,11,04,24,13.30
2014,07,11,04,25,13.30
2014,07,11,04,26,13.30
2014,07,11,04,27,13.30
2014,07,11,04,28,13.20
2014,07,11,04,29,13.20
2014,07,11,04,30,13.30
2014,07,11,04,31,13.20
2014,07,11,04,32,13.20
2014,07,11,04,33,13.20
2014,07,11,04,34,13.20
2014,07,11,04,35,13.20
2014,07,11,04,36,13.20
2014,07,11,04,37,13.20
2014,07,11,04,38,13.20
2014,07,11,04,39,13.20
2014,07,11,04,40,13.20
2014,07,11,04,41,13.20
2014,07,11,04,42,13.20
2014,07,11,04,43,13.20
2014,07,11,04,44,13.20
2014,07,11,04,45,13.10
2014,07,11,04,46,13.10
2014,07,11,04,47,13.10
2014,07,11,04,48,13.10
2014,07,11,04,49,13.10
2014,07,11,04,50,13.10
2014,07,11,04,51,13.10
2014,07,11,04,52,13.10
2014,07,11,04,53,13.10
2014,07,11,04,54,13.10
2014,07,11,04,55,13.10
2014,07,11,04,56,13.10
2014,07,11,04,57,13.00
2014,07,11,04,58,13.00
2014,07,11,04,59,13.00
2014,07,11,05,00,13.00
2014,07,11,05,01,13.00
2014,07,11,05,02,13.00
2014,07,11,05,03,13.00
2014,07,11,05,04,13.00
2014,07,11,05,05,13.00
2014,07,11,05,06,13.00
2014,07,11,05,07,13.00
2014,07,11,05,08,13.00
2014,07,11,05,09,12.90
2014,07,11,05,10,12.90
2014,07,11,05,11,12.90
2014,07,11,05,12,12.90
2014,07,11,05,13,12.90
2014,07,11,05,14,12.90
2014,07,11,05,15,12.90
2014,07,11,05,16,12.90
2014,07,11,05,17,12.90
2014,07,11,05,18,12.80
2014,07,11,05,19,12.80
2014,07,11,05,20,12.80
2014,07,11,05,21,12.80
2014,07,11,05,22,12.80
2014,07,11,05,23,12.70
2014,07,11,05,24,12.70
2014,07,11,05,25,12.70
2014,07,11,05,26,12.70
2014,07,11,05,27,12.70
2014,07,11,05,28,12.70
2014,07,11,05,29,12.70
2014,07,11,05,30,12.70
2014,07,11,05,31,12.70
2014,07,11,05,32,12.70
2014,07,11,05,33,12.70
2014,07,11,05,34,12.70
2014,07,11,05,35,12.70
2014,07,11,05,36,12.70
2014,07,11,05,37,12.70
2014,07,11,05,38,12.70
2014,07,11,05,39,12.70
2014,07,11,05,40,12.70
2014,07,11,05,41,12.70
2014,07,11,05,42,12.70
2014,07,11,05,43,12.70
2014,07,11,05,44,12.70
2014,07,11,05,45,12.70
2014,07,11,05,46,12.70
2014,07,11,05,47,12.70
2014,07,11,05,48,12.70
2014,07,11,05,49,12.70
2014,07,11,05,50,12.70
2014,07,11,05,51,12.70
2014,07,11,05,52,12.70
2014,07,11,05,53,12.70
2014,07,11,05,54,12.70
2014,07,11,05,55,12.70
2014,07,11,05,56,12.60
2014,07,11,05,57,12.60
2014,07,11,05,58,12.60
2014,07,11,05,59,12.60
2014,07,11,06,00,12.60
2014,07,11,06,01,12.60
2014,07,11,06,02,12.60
2014,07,11,06,03,12.60
2014,07,11,06,04,12.60
2014,07,11,06,05,12.60
2014,07,11,06,06,12.60
2014,07,11,06,07,12.60
2014,07,11,06,08,12.60
2014,07,11,06,09,12.60
2014,07,11,06,10,12.60
2014,07,11,06,11,12.60
2014,07,11,06,12,12.60
2014,07,11,06,13,12.60
2014,07,11,06,14,12.60
2014,07,11,06,15,12.60
2014,07,11,06,16,12.60
2014,07,11,06,17,12.60
2014,07,11,06,18,12.60
2014,07,11,06,19,12.60
2014,07,11,06,20,12.60
2014,07,11,06,21,12.70
2014,07,11,06,22,12.70
2014,07,11,06,23,12.70
2014,07,11,06,24,12.70
2014,07,11,06,25,12.70
2014,07,11,06,26,12.70
2014,07,11,06,27,12.70
2014,07,11,06,28,12.80
2014,07,11,06,29,12.80
2014,07,11,06,30,12.80
2014,07,11,06,31,12.80
2014,07,11,06,32,12.90
2014,07,11,06,33,12.90
2014,07,11,06,34,13.00
2014,07,11,06,35,13.00
2014,07,11,06,36,13.00
2014,07,11,06,37,13.10
2014,07,11,06,38,13.20
2014,07,11,06,39,13.20
2014,07,11,06,40,13.20
2014,07,11,06,41,13.30
2014,07,11,06,42,13.30
2014,07,11,06,43,13.40
2014,07,11,06,44,13.40
2014,07,11,06,45,13.50
2014,07,11,06,46,13.60
2014,07,11,06,47,13.60
2014,07,11,06,48,13.70
2014,07,11,06,49,13.70
2014,07,11,06,50,13.80
2014,07,11,06,51,13.80
2014,07,11,06,52,13.90
2014,07,11,06,53,13.90
2014,07,11,06,54,14.00
2014,07,11,06,55,14.00
2014,07,11,06,56,14.10
2014,07,11,06,57,14.10
2014,07,11,06,58,14.10
2014,07,11,06,59,14.20
2014,07,11,07,00,14.30
2014,07,11,07,01,14.30
2014,07,11,07,02,14.30
2014,07,11,07,03,14.30
2014,07,11,07,04,14.30
2014,07,11,07,05,14.30
2014,07,11,07,06,14.30
2014,07,11,07,07,14.30
2014,07,11,07,08,14.50
2014,07,11,07,09,14.60
2014,07,11,07,10,14.60
2014,07,11,07,11,14.60
2014,07,11,07,12,14.60
2014,07,11,07,13,14.60
2014,07,11,07,14,14.60
2014,07,11,07,15,14.70
2014,07,11,07,16,14.70
2014,07,11,07,17,14.70
2014,07,11,07,18,14.70
2014,07,11,07,19,14.70
2014,07,11,07,20,14.80
2014,07,11,07,21,14.80
2014,07,11,07,22,14.80
2014,07,11,07,23,14.90
2014,07,11,07,24,14.90
2014,07,11,07,25,14.90
2014,07,11,07,26,15.00
2014,07,11,07,27,15.00
2014,07,11,07,28,15.10
2014,07,11,07,29,15.10
2014,07,11,07,30,15.20
2014,07,11,07,31,15.20
2014,07,11,07,32,15.20
2014,07,11,07,33,15.30
2014,07,11,07,34,15.30
2014,07,11,07,35,15.40
2014,07,11,07,36,15.40
2014,07,11,07,37,15.50
2014,07,11,07,38,15.60
2014,07,11,07,39,15.70
2014,07,11,07,40,15.70
2014,07,11,07,41,15.80
2014,07,11,07,42,15.80
2014,07,11,07,43,15.90
2014,07,11,07,44,15.90
2014,07,11,07,45,16.00
2014,07,11,07,46,16.00
2014,07,11,07,47,16.10
2014,07,11,07,48,16.10
2014,07,11,07,49,16.20
2014,07,11,07,50,16.30
2014,07,11,07,51,16.30
2014,07,11,07,52,16.40
2014,07,11,07,53,16.40
2014,07,11,07,54,16.50
2014,07,11,07,55,16.60
2014,07,11,07,56,16.70
2014,07,11,07,57,16.80
2014,07,11,07,58,16.80
2014,07,11,07,59,16.90
2014,07,11,08,00,16.90
2014,07,11,08,01,17.00
2014,07,11,08,02,17.00
2014,07,11,08,03,17.10
2014,07,11,08,04,17.10
2014,07,11,08,05,17.20
2014,07,11,08,06,17.30
2014,07,11,08,07,17.40
2014,07,11,08,08,17.50
2014,07,11,08,09,17.60
2014,07,11,08,10,17.70
2014,07,11,08,11,17.80
2014,07,11,08,12,17.90
2014,07,11,08,13,18.00
2014,07,11,08,14,18.10
2014,07,11,08,15,18.20
2014,07,11,08,16,18.20
2014,07,11,08,17,18.20
2014,07,11,08,18,18.30
2014,07,11,08,19,18.30
2014,07,11,08,20,18.40
2014,07,11,08,21,18.40
2014,07,11,08,22,18.50
2014,07,11,08,23,18.60
2014,07,11,08,24,18.70
2014,07,11,08,25,18.80
2014,07,11,08,26,18.90
2014,07,11,08,27,19.10
2014,07,11,08,28,19.30
2014,07,11,08,29,19.40
2014,07,11,08,30,19.60
2014,07,11,08,31,19.70
2014,07,11,08,32,19.70
2014,07,11,08,33,19.80
2014,07,11,08,34,19.80
2014,07,11,08,35,19.90
2014,07,11,08,36,20.00
2014,07,11,08,37,20.00
2014,07,11,08,38,20.10
2014,07,11,08,39,20.10
2014,07,11,08,40,20.20
2014,07,11,08,41,20.20
2014,07,11,08,42,20.30
2014,07,11,08,43,20.30
2014,07,11,08,44,20.20
2014,07,11,08,45,20.30
2014,07,11,08,46,20.30
2014,07,11,08,47,20.40
2014,07,11,08,48,20.40
2014,07,11,08,49,20.50
2014,07,11,08,50,20.60
2014,07,11,08,51,20.60
2014,07,11,08,52,20.60
2014,07,11,08,53,20.60
2014,07,11,08,54,20.60
2014,07,11,08,55,20.50
2014,07,11,08,56,20.50
2014,07,11,08,57,20.50
2014,07,11,08,58,20.50
2014,07,11,08,59,20.60
2014,07,11,09,00,20.60
2014,07,11,09,01,20.60
2014,07,11,09,02,20.60
2014,07,11,09,03,20.60
2014,07,11,09,04,20.70
2014,07,11,09,05,20.70
2014,07,11,09,06,20.70
2014,07,11,09,07,20.70
2014,07,11,09,08,20.80
2014,07,11,09,09,20.80
2014,07,11,09,10,20.80
2014,07,11,09,11,20.80
2014,07,11,09,12,20.80
2014,07,11,09,13,20.90
2014,07,11,09,14,20.90
2014,07,11,09,15,20.90
2014,07,11,09,16,20.90
2014,07,11,09,17,20.90
2014,07,11,09,18,20.90
2014,07,11,09,19,21.00
2014,07,11,09,20,21.00
2014,07,11,09,21,21.00
2014,07,11,09,22,21.00
2014,07,11,09,23,21.10
2014,07,11,09,24,21.30
2014,07,11,09,25,21.40
2014,07,11,09,26,21.60
2014,07,11,09,27,21.70
2014,07,11,09,28,21.80
2014,07,11,09,29,21.80
2014,07,11,09,30,21.90
2014,07,11,09,31,21.90
2014,07,11,09,32,21.90
2014,07,11,09,33,21.80
2014,07,11,09,34,21.80
2014,07,11,09,35,21.80
2014,07,11,09,36,21.80
2014,07,11,09,37,21.80
2014,07,11,09,38,21.80
2014,07,11,09,39,21.80
2014,07,11,09,40,21.90
2014,07,11,09,41,21.90
2014,07,11,09,42,22.00
2014,07,11,09,43,22.10
2014,07,11,09,44,22.20
2014,07,11,09,45,22.30
2014,07,11,09,46,22.40
2014,07,11,09,47,22.50
2014,07,11,09,48,22.60
2014,07,11,09,49,22.70
2014,07,11,09,50,22.80
2014,07,11,09,51,22.90
2014,07,11,09,52,22.90
2014,07,11,09,53,23.00
2014,07,11,09,54,23.10
2014,07,11,09,55,23.10
2014,07,11,09,56,23.20
2014,07,11,09,57,23.10
2014,07,11,09,58,23.10
2014,07,11,09,59,23.10
2014,07,11,10,00,23.00
2014,07,11,10,01,23.00
2014,07,11,10,02,22.90
2014,07,11,10,03,22.90
2014,07,11,10,04,22.90
2014,07,11,10,05,23.00
2014,07,11,10,06,23.10
2014,07,11,10,07,23.10
2014,07,11,10,08,23.20
2014,07,11,10,09,23.20
2014,07,11,10,10,23.20
2014,07,11,10,11,23.30
2014,07,11,10,12,23.30
2014,07,11,10,13,23.30
2014,07,11,10,14,23.30
2014,07,11,10,15,23.30
2014,07,11,10,16,23.30
2014,07,11,10,17,23.30
2014,07,11,10,18,23.30
2014,07,11,10,19,23.30
2014,07,11,10,20,23.30
2014,07,11,10,21,23.30
2014,07,11,10,22,23.30
2014,07,11,10,23,23.40
2014,07,11,10,24,23.40
2014,07,11,10,25,23.40
2014,07,11,10,26,23.50
2014,07,11,10,27,23.50
2014,07,11,10,28,23.60
2014,07,11,10,29,23.70
2014,07,11,10,30,23.80
2014,07,11,10,31,23.90
2014,07,11,10,32,24.00
2014,07,11,10,33,24.20
2014,07,11,10,34,24.20
2014,07,11,10,35,24.20
2014,07,11,10,36,24.20
2014,07,11,10,37,24.30
2014,07,11,10,38,24.30
2014,07,11,10,39,24.30
2014,07,11,10,40,24.30
2014,07,11,10,41,24.30
2014,07,11,10,42,24.30
2014,07,11,10,43,24.30
2014,07,11,10,44,24.20
2014,07,11,10,45,24.20
2014,07,11,10,46,24.20
2014,07,11,10,47,24.20
2014,07,11,10,48,24.20
2014,07,11,10,49,24.20
2014,07,11,10,50,24.20
2014,07,11,10,51,24.20
2014,07,11,10,52,24.50
2014,07,11,10,53,24.60
2014,07,11,10,54,24.60
2014,07,11,10,55,24.60
2014,07,11,10,56,24.60
2014,07,11,10,57,24.60
2014,07,11,10,58,24.60
2014,07,11,10,59,24.70
2014,07,11,11,00,24.80
2014,07,11,11,01,24.80
2014,07,11,11,02,24.80
2014,07,11,11,03,24.80
2014,07,11,11,04,24.90
2014,07,11,11,05,25.00
2014,07,11,11,06,25.10
2014,07,11,11,07,25.10
2014,07,11,11,08,25.10
2014,07,11,11,09,25.30
2014,07,11,11,10,25.40
2014,07,11,11,11,25.50
2014,07,11,11,12,25.60
2014,07,11,11,13,25.60
2014,07,11,11,14,25.70
2014,07,11,11,15,25.70
2014,07,11,11,16,25.80
2014,07,11,11,17,25.90
2014,07,11,11,18,26.00
2014,07,11,11,19,26.00
2014,07,11,11,20,26.10
2014,07,11,11,21,26.10
2014,07,11,11,22,26.10
2014,07,11,11,23,26.20
2014,07,11,11,24,26.30
2014,07,11,11,25,26.30
2014,07,11,11,26,26.30
2014,07,11,11,27,26.30
2014,07,11,11,28,26.40
2014,07,11,11,29,26.40
2014,07,11,11,30,26.40
2014,07,11,11,31,26.50
2014,07,11,11,32,26.60
2014,07,11,11,33,26.60
2014,07,11,11,34,26.70
2014,07,11,11,35,26.70
2014,07,11,11,36,26.70
2014,07,11,11,37,26.70
2014,07,11,11,38,26.70
2014,07,11,11,39,26.80
2014,07,11,11,40,26.80
2014,07,11,11,41,26.90
2014,07,11,11,42,26.90
2014,07,11,11,43,26.90
2014,07,11,11,44,26.90
2014,07,11,11,45,26.80
2014,07,11,11,46,26.80
2014,07,11,11,47,26.90
2014,07,11,11,48,26.90
2014,07,11,11,49,26.90
2014,07,11,11,50,27.00
2014,07,11,11,51,27.10
2014,07,11,11,52,27.20
2014,07,11,11,53,27.20
2014,07,11,11,54,27.30
2014,07,11,11,55,27.30
2014,07,11,11,56,27.40
2014,07,11,11,57,27.40
2014,07,11,11,58,27.40
2014,07,11,11,59,27.40
2014,07,11,12,00,27.40
2014,07,11,12,01,27.40
2014,07,11,12,02,27.40
2014,07,11,12,03,27.50
2014,07,11,12,04,27.40
2014,07,11,12,05,27.50
2014,07,11,12,06,27.60
2014,07,11,12,07,27.70
2014,07,11,12,08,27.80
2014,07,11,12,09,27.80
2014,07,11,12,10,27.80
2014,07,11,12,11,27.90
2014,07,11,12,12,27.90
2014,07,11,12,13,27.90
2014,07,11,12,14,28.00
2014,07,11,12,15,28.10
2014,07,11,12,16,28.10
2014,07,11,12,17,28.10
2014,07,11,12,18,28.20
2014,07,11,12,19,28.30
2014,07,11,12,20,28.30
2014,07,11,12,21,28.30
2014,07,11,12,22,28.30
2014,07,11,12,23,28.40
2014,07,11,12,24,28.40
2014,07,11,12,25,28.40
2014,07,11,12,26,28.40
2014,07,11,12,27,28.50
2014,07,11,12,28,28.60
2014,07,11,12,29,28.70
2014,07,11,12,30,28.80
2014,07,11,12,31,28.90
2014,07,11,12,32,29.00
2014,07,11,12,33,29.10
2014,07,11,12,34,29.20
2014,07,11,12,35,29.30
2014,07,11,12,36,29.40
2014,07,11,12,37,29.40
2014,07,11,12,38,29.50
2014,07,11,12,39,29.60
2014,07,11,12,40,29.60
2014,07,11,12,41,29.70
2014,07,11,12,42,29.70
2014,07,11,12,43,29.70
2014,07,11,12,44,29.70
2014,07,11,12,45,29.70
2014,07,11,12,46,29.80
2014,07,11,12,47,29.80
2014,07,11,12,48,29.80
2014,07,11,12,49,29.90
2014,07,11,12,50,29.90
2014,07,11,12,51,29.90
2014,07,11,12,52,29.90
2014,07,11,12,53,29.90
2014,07,11,12,54,30.00
2014,07,11,12,55,30.10
2014,07,11,12,56,30.20
2014,07,11,12,57,30.30
2014,07,11,12,58,30.40
2014,07,11,12,59,30.40
2014,07,11,13,00,30.50
2014,07,11,13,01,30.50
2014,07,11,13,02,30.60
2014,07,11,13,03,30.60
2014,07,11,13,04,30.60
2014,07,11,13,05,30.60
2014,07,11,13,06,30.60
2014,07,11,13,07,30.60
2014,07,11,13,08,30.60
2014,07,11,13,09,30.60
2014,07,11,13,10,30.60
2014,07,11,13,11,30.60
2014,07,11,13,12,30.60
2014,07,11,13,13,30.70
2014,07,11,13,14,30.80
2014,07,11,13,15,30.90
2014,07,11,13,16,30.90
2014,07,11,13,17,30.90
2014,07,11,13,18,31.00
2014,07,11,13,19,31.00
2014,07,11,13,20,31.00
2014,07,11,13,21,30.90
2014,07,11,13,22,30.90
2014,07,11,13,23,30.80
2014,07,11,13,24,30.80
2014,07,11,13,25,30.80
2014,07,11,13,26,30.80
2014,07,11,13,27,30.80
2014,07,11,13,28,30.80
2014,07,11,13,29,30.90
2014,07,11,13,30,30.90
2014,07,11,13,31,31.00
2014,07,11,13,32,31.10
2014,07,11,13,33,31.20
2014,07,11,13,34,31.30
2014,07,11,13,35,31.30
2014,07,11,13,36,31.20
2014,07,11,13,37,31.20
2014,07,11,13,38,31.20
2014,07,11,13,39,31.10
2014,07,11,13,40,31.10
2014,07,11,13,41,31.10
2014,07,11,13,42,31.10
2014,07,11,13,43,31.20
2014,07,11,13,44,31.20
2014,07,11,13,45,31.30
2014,07,11,13,46,31.40
2014,07,11,13,47,31.50
2014,07,11,13,48,31.60
2014,07,11,13,49,31.70
2014,07,11,13,50,31.80
2014,07,11,13,51,31.80
2014,07,11,13,52,31.90
2014,07,11,13,53,31.90
2014,07,11,13,54,31.80
2014,07,11,13,55,31.80
2014,07,11,13,56,31.70
2014,07,11,13,57,31.60
2014,07,11,13,58,31.50
2014,07,11,13,59,31.50
2014,07,11,14,00,31.40
2014,07,11,14,01,31.40
2014,07,11,14,02,31.40
2014,07,11,14,03,31.40
2014,07,11,14,04,31.40
2014,07,11,14,05,31.40
2014,07,11,14,06,31.40
2014,07,11,14,07,31.40
2014,07,11,14,08,31.40
2014,07,11,14,09,31.40
2014,07,11,14,10,31.40
2014,07,11,14,11,31.40
2014,07,11,14,12,31.40
2014,07,11,14,13,31.40
2014,07,11,14,14,31.50
2014,07,11,14,15,31.50
2014,07,11,14,16,31.50
2014,07,11,14,17,31.50
2014,07,11,14,18,31.50
2014,07,11,14,19,31.50
2014,07,11,14,20,31.50
2014,07,11,14,21,31.40
2014,07,11,14,22,31.40
2014,07,11,14,23,31.40
2014,07,11,14,24,31.40
2014,07,11,14,25,31.40
2014,07,11,14,26,31.50
2014,07,11,14,27,31.60
2014,07,11,14,28,31.60
2014,07,11,14,29,31.60
2014,07,11,14,30,31.60
2014,07,11,14,31,31.70
2014,07,11,14,32,31.70
2014,07,11,14,33,31.80
2014,07,11,14,34,31.80
2014,07,11,14,35,31.80
2014,07,11,14,36,31.80
2014,07,11,14,37,31.80
2014,07,11,14,38,31.80
2014,07,11,14,39,31.90
2014,07,11,14,40,31.90
2014,07,11,14,41,32.00
2014,07,11,14,42,32.00
2014,07,11,14,43,32.00
2014,07,11,14,44,32.00
2014,07,11,14,45,32.10
2014,07,11,14,46,32.10
2014,07,11,14,47,32.10
2014,07,11,14,48,32.10
2014,07,11,14,49,32.10
2014,07,11,14,50,32.10
2014,07,11,14,51,32.20
2014,07,11,14,52,32.30
2014,07,11,14,53,32.30
2014,07,11,14,54,32.30
2014,07,11,14,55,32.30
2014,07,11,14,56,32.20
2014,07,11,14,57,32.30
2014,07,11,14,58,32.30
2014,07,11,14,59,32.30
2014,07,11,15,00,32.40
2014,07,11,15,01,32.40
2014,07,11,15,02,32.50
2014,07,11,15,03,32.50
2014,07,11,15,04,32.50
2014,07,11,15,05,32.50
2014,07,11,15,06,32.40
2014,07,11,15,07,32.40
2014,07,11,15,08,32.40
2014,07,11,15,09,32.50
2014,07,11,15,10,32.60
2014,07,11,15,11,32.60
2014,07,11,15,12,32.70
2014,07,11,15,13,32.70
2014,07,11,15,14,32.80
2014,07,11,15,15,32.80
2014,07,11,15,16,32.80
2014,07,11,15,17,32.80
2014,07,11,15,18,32.90
2014,07,11,15,19,32.90
2014,07,11,15,20,32.90
2014,07,11,15,21,32.90
2014,07,11,15,22,32.90
2014,07,11,15,23,32.80
2014,07,11,15,24,32.80
2014,07,11,15,25,32.70
2014,07,11,15,26,32.70
2014,07,11,15,27,32.70
2014,07,11,15,28,32.70
2014,07,11,15,29,32.80
2014,07,11,15,30,32.80
2014,07,11,15,31,32.80
2014,07,11,15,32,32.80
2014,07,11,15,33,32.90
2014,07,11,15,34,32.90
2014,07,11,15,35,33.00
2014,07,11,15,36,33.10
2014,07,11,15,37,33.20
2014,07,11,15,38,33.30
2014,07,11,15,39,33.30
2014,07,11,15,40,33.30
2014,07,11,15,41,33.40
2014,07,11,15,42,33.40
2014,07,11,15,43,33.40
2014,07,11,15,44,33.40
2014,07,11,15,45,33.30
2014,07,11,15,46,33.30
2014,07,11,15,47,33.30
2014,07,11,15,48,33.40
2014,07,11,15,49,33.40
2014,07,11,15,50,33.40
2014,07,11,15,51,33.40
2014,07,11,15,52,33.40
2014,07,11,15,53,33.40
2014,07,11,15,54,33.20
2014,07,11,15,55,33.20
2014,07,11,15,56,33.20
2014,07,11,15,57,33.20
2014,07,11,15,58,33.20
2014,07,11,15,59,33.20
2014,07,11,16,00,33.20
2014,07,11,16,01,33.20
2014,07,11,16,02,33.10
2014,07,11,16,03,33.10
2014,07,11,16,04,33.10
2014,07,11,16,05,33.20
2014,07,11,16,06,33.20
2014,07,11,16,07,33.10
2014,07,11,16,08,33.10
2014,07,11,16,09,33.10
2014,07,11,16,10,33.20
2014,07,11,16,11,33.20
2014,07,11,16,12,33.20
2014,07,11,16,13,33.20
2014,07,11,16,14,33.20
2014,07,11,16,15,33.20
2014,07,11,16,16,33.20
2014,07,11,16,17,33.30
2014,07,11,16,18,33.30
2014,07,11,16,19,33.40
2014,07,11,16,20,33.40
2014,07,11,16,21,33.40
2014,07,11,16,22,33.30
2014,07,11,16,23,33.30
2014,07,11,16,24,33.30
2014,07,11,16,25,33.30
2014,07,11,16,26,33.30
2014,07,11,16,27,33.30
2014,07,11,16,28,33.30
2014,07,11,16,29,33.30
2014,07,11,16,30,33.30
2014,07,11,16,31,33.30
2014,07,11,16,32,33.30
2014,07,11,16,33,33.20
2014,07,11,16,34,33.20
2014,07,11,16,35,33.30
2014,07,11,16,36,33.30
2014,07,11,16,37,33.30
2014,07,11,16,38,33.30
2014,07,11,16,39,33.30
2014,07,11,16,40,33.30
2014,07,11,16,41,33.30
2014,07,11,16,42,33.30
2014,07,11,16,43,33.30
2014,07,11,16,44,33.30
2014,07,11,16,45,33.30
2014,07,11,16,46,33.30
2014,07,11,16,47,33.30
2014,07,11,16,48,33.30
2014,07,11,16,49,33.20
2014,07,11,16,50,33.20
2014,07,11,16,51,33.20
2014,07,11,16,52,33.30
2014,07,11,16,53,33.30
2014,07,11,16,54,33.40
2014,07,11,16,55,33.40
2014,07,11,16,56,33.50
2014,07,11,16,57,33.50
2014,07,11,16,58,33.40
2014,07,11,16,59,33.40
2014,07,11,17,00,33.40
2014,07,11,17,01,33.30
2014,07,11,17,02,33.40
2014,07,11,17,03,33.30
2014,07,11,17,04,33.30
2014,07,11,17,05,33.30
2014,07,11,17,06,33.30
2014,07,11,17,07,33.30
2014,07,11,17,08,33.40
2014,07,11,17,09,33.40
2014,07,11,17,10,33.50
2014,07,11,17,11,33.50
2014,07,11,17,12,33.60
2014,07,11,17,13,33.60
2014,07,11,17,14,33.70
2014,07,11,17,15,33.70
2014,07,11,17,16,33.60
2014,07,11,17,17,33.60
2014,07,11,17,18,33.60
2014,07,11,17,19,33.60